Friday Harbor, WA

10:34 PM PST on February 22, 2018 (GMT -0800)
Friday Harbor

Weather History for KFHR - July, 2014

Change the Weather History Date:

Monday, July 28, 2014

  Actual Average Record
Temperature  
Mean Temperature 62 °F -  
Max Temperature 79 °F 70 °F 82 °F (2004)
Min Temperature 50 °F 48 °F 45 °F (1999)
Degree Days  
Heating Degree Days 2    
Growing Degree Days 12 (Base 50)    
Moisture  
Dew Point 51 °F    
Average Humidity 72    
Maximum Humidity 93    
Minimum Humidity 46    
Precipitation  
Precipitation 0.00 in - - ()
Sea Level Pressure  
Sea Level Pressure 30.11 in    
Wind  
Wind Speed 2 mph (South)    
Max Wind Speed 10 mph    
Max Gust Speed -    
Visibility 10 miles    
Events      
Averages and records for this station are not official NWS values.
T = Trace of Precipitation, MM = Missing Value Source: NWS Daily Summary

Daily Weather History Graph

Daily Weather History Graph

Search for Another Location

Airport or City:

Trip Planner

Search our weather history database for the weather conditions in past years. The results will help you decide how hot, cold, wet, or windy it might be!

Date:

Astronomy

Jul. 28, 2014 Rise Set
Actual Time 5:41 AM PDT 8:54 PM PDT
Civil Twilight 5:03 AM PDT 9:32 PM PDT
Nautical Twilight 4:14 AM PDT 10:21 PM PDT
Astronomical Twilight 3:11 AM PDT 11:23 PM PDT
Moon 7:41 AM PDT (7/28) 9:23 PM PDT (7/28)
Length of Visible Light 16h 28m
Length of Day
15h 13m
Waxing Crescent, 3% of the Moon is Illuminated
Jul 28
Waxing Crescent
Aug 3
First Quarter
Aug 10
Full
Aug 17
Last Quarter
Aug 25
New

Hourly Weather History & Observations

Time (PDT) Temp. Dew Point Humidity Pressure Visibility Wind Dir Wind Speed Gust Speed Precip Events Conditions
12:53 AM 52.0 °F 48.0 °F 86% 30.11 in 10.0 mi Calm Calm - N/A   Clear
1:53 AM 51.1 °F 48.9 °F 92% 30.11 in 10.0 mi Calm Calm - N/A   Clear
2:53 AM 51.1 °F 48.9 °F 92% 30.11 in 10.0 mi Calm Calm - N/A   Clear
3:53 AM 50.0 °F 48.0 °F 93% 30.11 in 10.0 mi Calm Calm - N/A   Clear
4:53 AM 50.0 °F 48.0 °F 93% 30.12 in 10.0 mi Calm Calm - N/A   Clear
5:53 AM 50.0 °F 48.0 °F 93% 30.13 in 10.0 mi Calm Calm - N/A   Clear
7:53 AM 60.1 °F 53.1 °F 78% 30.14 in 10.0 mi Calm Calm - N/A   Clear
8:53 AM 62.1 °F 53.1 °F 72% 30.14 in 10.0 mi SE 3.5 mph - N/A   Clear
9:53 AM 66.9 °F 54.0 °F 63% 30.13 in 10.0 mi ESE 5.8 mph - N/A   Clear
12:53 PM 71.1 °F 55.9 °F 59% 30.13 in 10.0 mi ESE 4.6 mph - N/A   Clear
1:53 PM 75.9 °F 57.0 °F 52% 30.11 in 10.0 mi ESE 4.6 mph - N/A   Clear
2:53 PM 75.9 °F 55.9 °F 50% 30.12 in 10.0 mi SW 6.9 mph - N/A   Clear
3:53 PM 73.9 °F 55.0 °F 52% 30.11 in 10.0 mi SW 10.4 mph - N/A   Clear
4:53 PM 75.9 °F 54.0 °F 46% 30.10 in 10.0 mi SW 10.4 mph - N/A   Clear
5:53 PM 73.9 °F 53.1 °F 48% 30.09 in 10.0 mi SW 6.9 mph - N/A   Clear
6:53 PM 73.9 °F 53.1 °F 48% 30.07 in 10.0 mi WSW 4.6 mph - N/A   Clear
7:53 PM 66.9 °F 50.0 °F 54% 30.06 in 10.0 mi Calm Calm - N/A   Clear
8:53 PM 55.9 °F 50.0 °F 80% 30.07 in 10.0 mi Calm Calm - N/A   Clear
9:53 PM 53.1 °F 48.9 °F 86% 30.08 in 10.0 mi Calm Calm - N/A   Clear
10:53 PM 54.0 °F 48.9 °F 83% 30.08 in 10.0 mi Calm Calm - N/A   Clear
11:53 PM 54.0 °F 48.9 °F 83% 30.09 in 10.0 mi NNE 3.5 mph - N/A   Clear